NA5X-13 Weather Reports


time (UTC)temp
F
wind
direction
speed
knots
gust
knots
rain 1hr
in
rain 24hr
in
rain mn
in
humidity
%
barometer
mb
20260506134533 60 23 1.7 6.1 0.00 0.00 0.00 91 1012.9
20260506133029 60 345 1.7 3.5 0.00 0.00 0.00 93 1013.0
20260506131537 61 323 1.7 3.5 0.00 0.00 0.00 93 1012.7
20260506130033 61 1 0.9 6.1 0.00 0.00 0.00 93 1012.4
20260506124550 61 330 1.7 4.3 0.00 0.00 0.00 93 1012.3
20260506123024 61 324 0.9 4.3 0.00 0.00 0.00 94 1012.0
20260506121546 61 330 1.7 6.1 0.00 0.00 0.00 94 1011.9
20260506120033 62 318 2.6 6.1 0.00 0.00 0.00 94 1011.6
20260506114531 63 323 1.7 4.3 0.00 0.00 0.00 94 1011.3
20260506113027 63 347 0.0 3.5 0.00 0.00 0.00 94 1011.4
20260506111524 64 326 0.0 3.5 0.00 0.00 0.00 93 1011.2
20260506110035 65 328 1.7 5.2 0.00 0.00 0.00 91 1010.9
20260506104530 66 345 2.6 6.1 0.00 0.00 0.00 90 1010.7
20260506103046 68 345 1.7 4.3 0.00 0.00 0.00 86 1010.4
20260506101522 69 315 0.0 4.3 0.00 0.00 0.00 84 1010.1
20260506100039 70 320 0.9 2.6 0.00 0.00 0.00 83 1009.9
20260506094557 71 269 0.0 1.7 0.00 0.00 0.00 83 1009.5
20260506093032 71 358 0.0 1.7 0.00 0.00 0.00 84 1009.4
20260506091529 72 325 0.9 3.5 0.00 0.00 0.00 84 1009.1
20260506090035 75 338 1.7 4.3 0.00 0.00 0.00 90 1009.0
20260506084532 76 160 1.7 4.3 0.00 0.00 0.00 91 1009.0
20260506083029 76 165 2.6 7.8 0.00 0.00 0.00 91 1008.8
20260506081526 76 153 2.6 4.3 0.00 0.00 0.00 91 1008.9
20260506073031 76 172 1.7 7.0 0.00 0.00 0.00 91 1009.0
20260506071542 76 220 1.7 5.2 0.00 0.00 0.00 91 1009.2
20260506061526 75 162 0.0 0.0 0.00 0.00 0.00 92 1009.1
20260506044539 76 193 0.9 2.6 0.00 0.00 0.00 89 1008.5
20260506043050 76 229 0.9 5.2 0.00 0.00 0.00 89 1008.4
20260506041546 77 129 2.6 6.1 0.00 0.00 0.00 88 1008.5
20260506040043 77 135 1.7 4.3 0.00 0.00 0.00 88 1008.4
20260506034534 77 187 1.7 3.5 0.00 0.00 0.00 87 1008.2
20260506033034 77 198 0.9 5.2 0.00 0.00 0.00 86 1007.9
20260506031531 78 152 2.6 5.2 0.00 0.00 0.00 86 1007.6
20260506030027 78 231 2.6 5.2 0.00 0.00 0.00 86 1007.1
20260506024524 78 172 2.6 8.7 0.00 0.00 0.00 85 1006.9
20260506023100 78 217 1.7 7.0 0.00 0.00 0.00 85 1006.7
20260506021534 78 197 2.6 6.1 0.00 0.00 0.00 84 1006.4
20260506020036 79 193 1.7 3.5 0.00 0.00 0.00 83 1006.5
20260506014532 79 207 1.7 7.0 0.00 0.00 0.00 83 1006.4
20260506013029 79 212 2.6 5.2 0.00 0.00 0.00 82 1006.2
20260506011525 80 234 1.7 5.2 0.00 0.00 0.00 81 1006.1
20260506010037 81 233 3.5 7.0 0.00 0.00 0.00 80 1006.1
20260506004534 81 160 2.6 7.8 0.00 0.00 0.00 79 1006.0
20260506003031 82 214 3.5 7.8 0.00 0.00 0.00 78 1005.9
20260506001522 83 185 4.3 8.7 0.00 0.00 0.00 77 1006.1
20260506000056 83 210 2.6 7.8 0.00 0.00 0.00 76 1006.1
20260505234528 83 200 4.3 8.7 0.00 0.00 0.00 76 1006.0
20260505233047 83 233 4.3 9.6 0.00 0.00 0.00 75 1005.9
20260505231535 83 147 4.3 9.6 0.00 0.00 0.00 75 1005.8
20260505230030 84 178 4.3 10.4 0.00 0.00 0.00 74 1005.7
20260505224527 84 143 5.2 10.4 0.00 0.00 0.00 75 1005.8
20260505223024 84 167 5.2 11.3 0.00 0.00 0.00 74 1005.7
20260505221535 84 195 4.3 9.6 0.00 0.00 0.00 73 1005.6
20260505220032 84 172 3.5 11.3 0.00 0.00 0.00 74 1005.7
20260505214522 85 162 4.3 10.4 0.00 0.00 0.00 72 1005.7
20260505213034 85 184 5.2 9.6 0.00 0.00 0.00 73 1006.0
20260505211531 85 226 2.6 12.2 0.00 0.00 0.00 72 1006.1
20260505210030 85 150 4.3 9.6 0.00 0.00 0.00 72 1006.2
20260505204526 85 184 4.3 9.6 0.00 0.00 0.00 72 1006.5
20260505203043 85 176 2.6 11.3 0.00 0.00 0.00 72 1006.6
20260505201540 85 217 4.3 9.6 0.00 0.00 0.00 72 1006.5
20260505200056 84 229 4.3 11.3 0.00 0.00 0.00 72 1006.6
20260505194531 85 175 4.3 8.7 0.00 0.00 0.00 72 1006.7
20260505193024 84 146 3.5 8.7 0.00 0.00 0.00 73 1007.1
20260505191607 84 253 5.2 11.3 0.00 0.00 0.00 73 1007.2
20260505190029 84 207 7.0 14.8 0.00 0.00 0.00 72 1007.0
20260505184549 83 153 5.2 10.4 0.00 0.00 0.00 73 1007.2
20260505183034 83 205 7.8 15.6 0.00 0.00 0.00 73 1007.4
20260505181530 83 197 5.2 12.2 0.00 0.00 0.00 74 1007.4
20260505180024 83 198 5.2 11.3 0.00 0.00 0.00 74 1007.5
20260505174536 81 197 3.5 11.3 0.00 0.00 0.00 75 1007.9
20260505173033 81 215 6.1 13.9 0.00 0.00 0.00 75 1008.2
20260505171528 81 191 5.2 10.4 0.00 0.00 0.00 76 1008.1
20260505170036 80 234 3.5 10.4 0.00 0.00 0.00 77 1008.1
20260505164532 80 156 3.5 11.3 0.00 0.00 0.00 77 1008.1
20260505163027 79 229 3.5 10.4 0.00 0.00 0.00 79 1008.2
20260505161524 78 181 4.3 12.2 0.00 0.00 0.00 80 1008.2
20260505153054 76 203 2.6 8.7 0.00 0.00 0.00 83 1008.3
20260505151529 75 257 5.2 13.0 0.00 0.00 0.00 84 1008.3